Location: *
(57.8420°S, 159.8600°W)
Time: 13:04:51
(UTC+00:00)

Cosmos 1606 - Pass Details

Date: 18 May 2021
Orbit: 503 x 526 km, 82.5° (Epoch: 22 June)

Event Time Altitude Azimuth Distance (km) Brightness Sun altitude
Rises 03:47:38 0° 191° (S) 2,669 6.2 -10.3°
Reaches altitude 10° 03:49:51 10° 185° (S) 1,771 5.3 -10.6°
Maximum altitude 03:53:39 51° 108° (ESE) 658 2.8 -11.1°
Drops below altitude 10° 03:57:23 10° 30° (NNE) 1,742 5.3 -11.5°
Sets 03:59:33 0° 25° (NNE) 2,620 6.2 -11.8°
